Location: Newark
(45.9167°N, 5.5000°E)
Time: 09:47:46
(UTC+00:00)

N. Korean satellite - Pass Details

Date: 01 February 2020
Orbit: 456 x 505 km, 97.2° (Epoch: 25 February)

Event Time Altitude Azimuth Distance (km) Brightness Sun altitude
Rises 05:50:33 0° 7° (N) 2,564 10.2 -12.5°
Reaches altitude 10° 05:52:39 10° 2° (N) 1,686 9.2 -12.1°
Maximum altitude 05:56:10 51° 286° (WNW) 628 6.7 -11.5°
Drops below altitude 10° 05:59:43 10° 210° (SSW) 1,697 9.1 -10.9°
Sets 06:01:50 0° 205° (SSW) 2,581 10.1 -10.5°
